Flag for U.S.A. Weather past 2 weeks in Sevierville, Tennessee, U.S.A.

Now
72 °F

Mostly cloudy.


Feels Like: 68 °F
Forecast: 69 / 90 °F
Wind: 5 mph from Southwest

Location: McGhee Tyson Airport

Current Time: Jul 23, 2014 at 8:21:29 AM

Latest Report: Jul 23, 2014 at 6:53 AM


Visibility: 10 mi

Pressure: 30.06 "Hg

Humidity: 93%

Dew point: 70 °F

Location of SeviervilleLocation

Historic Weather in Sevierville — Graph

°F

Sevierville temperature yesterday

Maximum temperature yesterday: 84 °F (at 12:53 PM)
Minimum temperature yesterday: 70 °F (at 5:53 AM)
Average temperature yesterday: 76 °F

Past Weeks' High & Low Weather Summary

 TemperatureHumidityPressure
High92 °F (Jul 14, 4:53 PM)100% (Jul 18, 11:59 PM)30.19 "Hg (Jul 18, 11:59 PM)
Low57 °F (Jul 17, 4:53 AM)32% (Jul 11, 4:53 PM)29.81 "Hg (Jul 15, 4:53 PM)
Average75 °F75%30.02 "Hg
* Reported Jul 8 6:53 AM — Jul 23 6:53 AM, Sevierville, Weather by CustomWeather, © 2014

Note: Actual official high and low records may vary slightly from our data, if they occured in-between our weather recording intervals... More about our weather records

Advertising

Sevierville weather history for previous 24 hours

 ConditionsComfort  
Time TempWeatherWind HumidityBarometerVisibility
6:53 AM
Jul 23
72 °FMostly cloudy.5 mph93%30.06 "Hg10 mi
5:53 AM73 °FOvercast.5 mph90%30.05 "Hg10 mi
4:53 AM73 °FPassing clouds.5 mph90%30.04 "Hg10 mi
3:53 AM74 °FPassing clouds.5 mph88%30.03 "Hg10 mi
1:53 AM75 °FPartly cloudy.7 mph85%30.05 "Hg10 mi
12:53 AM76 °FOvercast.7 mph85%30.06 "Hg10 mi
11:53 PM
Jul 22
77 °FPassing clouds.5 mph85%30.07 "Hg10 mi
10:53 PM78 °FPassing clouds.7 mph79%30.07 "Hg10 mi
9:53 PM78 °FPassing clouds.6 mph82%30.06 "Hg10 mi
8:53 PM80 °FBroken clouds.10 mph76%30.04 "Hg10 mi
7:53 PM84 °FBroken clouds.5 mph63%30.03 "Hg10 mi
12:53 PM84 °FPartly sunny.No wind61%30.09 "Hg10 mi
11:53 AM81 °FMostly cloudy.No wind65%30.11 "Hg10 mi
10:53 AM79 °FBroken clouds.3 mph72%30.12 "Hg10 mi
9:53 AM77 °FBroken clouds.No wind74%30.13 "Hg10 mi
8:53 AM76 °FBroken clouds.3 mph85%30.13 "Hg10 mi
Weather by CustomWeather, © 2014

See weather overviewHow to use our weather pages